Location: Dreilärchen
(47.9312°N, 8.6113°E)
Time: 00:29:08
(UTC+00:00)

ERBS - Pass Details

Date: 26 May 2022
Orbit: 358 x 376 km, 57.0° (Epoch: 02 July)

Event Time Altitude Azimuth Distance (km) Brightness Sun altitude
Exits shadow 00:30:59 34° 100° (E) 634 3.2 -19.3°
Drops below altitude 10° 00:33:10 10° 65° (ENE) 1,373 5.4 -19.2°
Enters shadow 01:28:09 -70° 236° (WSW) 12,391 9.6 -15.4°
